カタログに戻る

FENGYUN 1C DEB

運用中SSO
NORAD 29909·DEBRIS·🇨🇳 China

打ち上げ May 10, 1999 から Taiyuan Satellite Launch Center

Loading…

次のパス (今後24時間)

TLE

最新Source: Space-Track

元期: Sep 14, 2026, 06:33 UTC

1 29909U 99025HF  26257.27295476  .00005446  00000-0  11381-2 0  9993
2 29909  98.6444  16.5074 0035781 246.7803 142.8891 14.59880766 24219

AllMySatでFENGYUN 1C DEBをリアルタイム追跡

Download on the App Store